Regional Weather Roundup
Issued by NWS

Home | Current Version | Previous Version | Graphics & Text | Print | Product List | Glossary On
Versions: 1 2 3 4 5 6 7 8 9 10 11 12 13 14 15 16 17 18 19 20 21 22 23 24 25 26 27 28 29 30 31 32 33 34 35 36 37 38 39 40 41 42 43 44 45 46 47 48 49 50
000
ASUS43 KLOT 240208
RWRIL

ILLINOIS REGIONAL WEATHER ROUNDUP
NATIONAL WEATHER SERVICE CHICAGO/ROMEOVILLE IL
900 PM CDT TUE AUG 23 2016

NOTE: "FAIR" INDICATES FEW OR NO CLOUDS BELOW 12,000 FEET WITH NO
SIGNIFICANT WEATHER AND/OR OBSTRUCTIONS TO VISIBILITY.

* THESE STATIONS ARE NOT UNDER NWS QUALITY CONTROL. THEY ALSO MAY NOT
  REPORT WEATHER SUCH AS PRECIPITATION OR FOG.

ILZ001-002-007-009-015-016-024-240300-
NORTHWEST ILLINOIS

CITY           SKY/WX    TMP DP  RH WIND       PRES   REMARKS
MOLINE         CLOUDY    74  68  81 S13       30.02F
STERLING*      CLOUDY    73  67  81 VRB6      30.05F
SAVANNA*       CLOUDY    74  67  77 S12G17    30.03R
$$

ILZ003-004-008-010-011-017-018-240300-
NORTH CENTRAL ILLINOIS

CITY           SKY/WX    TMP DP  RH WIND       PRES   REMARKS
ROCKFORD       CLOUDY    73  65  75 S12       30.07F
FREEPORT*      CLOUDY    72  66  79 S9        30.06S
ROCHELLE*      MOCLDY    71  67  87 S9        30.08S
DE KALB*       CLOUDY    72  66  82 SE10      30.10R
$$

ILZ005-006-012>014-019>023-240300-
NORTHEAST ILLINOIS

CITY           SKY/WX    TMP DP  RH WIND       PRES   REMARKS
CHICAGO-OHARE  MOCLDY    75  61  61 S12       30.10F
CHICAGO-MIDWAY CLOUDY    78  61  55 S12G21    30.11F HX  80
AURORA         MOCLDY    73  65  75 SE10      30.10F
LANSING*       CLOUDY    74  61  64 SE7       30.13F
JOLIET*        CLOUDY    74  66  75 SE5       30.11F
WAUKEGAN       PTCLDY    74  61  63 SE6       30.09S
DUPAGE AIRPORT MOCLDY    75  62  64 S12       30.09F
KANKAKEE*      CLOUDY    71  65  81 SE6       30.14S
WHEELING       MOCLDY    76  61  59 S13       30.11F
MORRIS*        CLOUDY    73  66  77 S6        30.09S
ROMEOVILLE*    MOCLDY    72  62  70 S10       30.11F
NORTHERLY ISL    N/A     75  60  59 S8          N/A
$$

LMZ740>746-240300-
SOUTHERN LAKE MICHIGAN

STATION/POSITION SKY/WX   TEMP    WIND        PRES    VSBY  WAVE
                          AIR SEA DIR/SP/G                  HT/PER
                          (F)     (DEG/KT/KT) (MB)    (MI)  (FT/S)
SOUTHERN BUOY              76 75  170/ 16/ 19 1019.2F         3/ 5
WILMETTE HARBOR            73 72  190/ 12/ 14   N/A           2/ 3
HARRISON CRIB              75     170/ 16/ 17   N/A
BURNHAM HARBOR             74     160/  8/ 11   N/A
CALUMET HARBOR             77                 1019.7F
BURNS HARBOR               76     180/  5/ 16 1021.0F
MICHIGAN CITY              74     160/  8/ 10   N/A
MICHIGAN CITY 6N           73 73  180/ 10/ 12   N/A           1/ 2
ST. JOSEPH                 74 75  150/ 10/ 12 1020.6R         1/ 3
$$

ILZ025>027-034>036-040-047-049-050-058-095>099-240300-
WEST-CENTRAL ILLINOIS

CITY           SKY/WX    TMP DP  RH WIND       PRES   REMARKS
QUINCY         PTCLDY    74  72  93 SE15      30.04S
GALESBURG*     CLOUDY    72  67  87 S8        30.05S
MACOMB*        CLOUDY    71  69  92 SE9       30.07S
JACKSONVILLE*  PTCLDY    70  67  91 SE6       30.08S
PITTSFIELD*    PTCLDY    72  70  93 SE7       30.08S
$$

ILZ028>032-037-038-041>044-048-051>054-059>061-240300-
CENTRAL ILLINOIS

CITY           SKY/WX    TMP DP  RH WIND       PRES   REMARKS
PONTIAC        PTCLDY    73  69  87 SE6       30.11F
BLOOMINGTON    PTCLDY    71  66  84 S12       30.12F
DECATUR        CLOUDY    73  66  78 S9        30.12F
PEORIA         CLOUDY    74  68  81 S12       30.08S
LACON*         CLOUDY    72  64  77 S8        30.07S
LINCOLN*       MOCLDY    72  68  88 SE7       30.10S
SPRINGFIELD    CLOUDY    74  67  78 SE9       30.09F
TAYLORVILLE    CLOUDY    72  67  83 SE7       30.11S
$$

ILZ033-039-045-046-055>057-062-063-240300-
EAST-CENTRAL ILLINOIS

CITY           SKY/WX    TMP DP  RH WIND       PRES   REMARKS
CHAMPAIGN      MOCLDY    70  67  90 SE5       30.14S
RANTOUL*       CLOUDY    73  68  86 SE5       30.14F
MATTOON        MOCLDY    72  66  81 S7        30.14S
PARIS*         CLOUDY    69  67  94 CALM      30.17R
$$

ILZ079-100>102-240300-
SOUTHWEST ILLINOIS

CITY           SKY/WX    TMP DP  RH WIND       PRES   REMARKS
ALTON          MOCLDY    70  68  94 SE9       30.11S
BELLEVILLE     CLOUDY    72  71  95 CALM      30.09R
CAHOKIA*       CLOUDY    74  70  87 E6        30.09R
SPARTA*        CLOUDY    74  71  92 SE8       30.11R
$$

ILZ064>066-069>071-074>076-080>082-084>086-088>090-092>094-240300-
SOUTH-CENTRAL ILLINOIS

CITY           SKY/WX    TMP DP  RH WIND       PRES   REMARKS
CARBONDALE     CLOUDY    75  71  87 S7        30.12S
CAIRO*         PTCLDY    74  72  96 SE6       30.13R
EFFINGHAM*     CLOUDY    71  68  89 E5        30.16R
MARION         PTCLDY    77  72  83 SE7       30.13S
MT. VERNON     CLOUDY    73  64  73 SE3       30.14R
CENTRALIA*     CLOUDY    72  69  92 SE5       30.11S
SALEM*         PTCLDY    74  67  80 SE5       30.13S
$$

ILZ067-068-072-073-078-083-087-091-240300-
SOUTHEAST ILLINOIS

CITY           SKY/WX    TMP DP  RH WIND       PRES   REMARKS
LAWRENCEVILLE  CLOUDY    72  67  84 E6        30.16S
FLORA*         CLOUDY    72  68  88 SE3       30.15R
FAIRFIELD*     CLOUDY    73  69  88 CALM      30.13S
HARRISBURG*    PTCLDY    73  72  95 SE5       30.15R
ROBINSON*      MOCLDY    70  67  89 SE5       30.17R
CARMI*         MOCLDY    72  70  93 CALM      30.14S
$$

ABBREVIATIONS USED IN REMARKS
   TC - TEMPERATURE IN CELSIUS
  WCI - WIND CHILL INDEX
   HX - HEAT INDEX
  VSB - VISIBILITY
$$





USA.gov is the U.S. government's official web portal to all federal, state and local government web resources and services.